Time,TemperatureF,DewpointF,PressureIn,WindDirection,WindDirectionDegrees,WindSpeedMPH,WindSpeedGustMPH,Humidity,HourlyPrecipIn,Conditions,Clouds,dailyrainin,SoftwareType,DateUTC
2013-11-03 00:04:00,48.5,27.6,24.34,SSW,192,5.0,11.0,44,0.00,,---,0.00,VWS V14.01,2013-11-03 05:04:00,
2013-11-03 00:09:00,48.6,27.7,24.34,SSW,202,9.0,10.0,44,0.00,,---,0.00,VWS V14.01,2013-11-03 05:09:00,
2013-11-03 00:14:00,48.7,27.8,24.34,SSW,207,6.0,6.0,44,0.00,,---,0.00,VWS V14.01,2013-11-03 05:14:00,
2013-11-03 00:19:00,48.6,27.7,24.34,South,187,8.0,10.0,44,0.00,,---,0.00,VWS V14.01,2013-11-03 05:19:00,
2013-11-03 00:24:00,48.6,27.7,24.33,South,189,7.0,11.0,44,0.00,,---,0.00,VWS V14.01,2013-11-03 05:24:00,
2013-11-03 00:29:00,48.8,27.9,24.33,SSW,200,6.0,9.0,44,0.00,,---,0.00,VWS V14.01,2013-11-03 05:29:00,
2013-11-03 00:34:00,48.8,27.9,24.33,SSW,194,7.0,10.0,44,0.00,,---,0.00,VWS V14.01,2013-11-03 05:34:00,
2013-11-03 00:39:00,48.7,27.8,24.33,SSW,196,8.0,9.0,44,0.00,,---,0.00,VWS V14.01,2013-11-03 05:39:00,
2013-11-03 00:44:00,48.6,27.7,24.33,SSW,210,7.0,10.0,44,0.00,,---,0.00,VWS V14.01,2013-11-03 05:44:00,
2013-11-03 00:49:00,48.6,27.7,24.33,SSW,211,6.0,9.0,44,0.00,,---,0.00,VWS V14.01,2013-11-03 05:49:00,
2013-11-03 00:55:00,48.6,27.7,24.33,SSW,202,8.0,8.0,44,0.00,,---,0.00,VWS V14.01,2013-11-03 05:55:00,
2013-11-03 01:00:00,48.6,27.7,24.32,SSW,202,9.0,12.0,44,0.00,,---,0.00,VWS V14.01,2013-11-03 06:00:00,
2013-11-03 01:01:00,47.9,29.2,24.30,South,184,12.0,18.0,48,0.00,,---,0.00,VWS V14.01,2013-11-03 06:01:00,
2013-11-03 01:02:00,47.8,29.1,24.30,South,185,15.0,18.0,48,0.00,,---,0.00,VWS V14.01,2013-11-03 06:02:00,
2013-11-03 01:03:00,47.8,29.1,24.30,South,185,15.0,20.0,48,0.00,,---,0.00,VWS V14.01,2013-11-03 06:03:00,
2013-11-03 01:04:00,47.7,29.0,24.30,SSW,198,18.0,21.0,48,0.00,,---,0.00,VWS V14.01,2013-11-03 06:04:00,
2013-11-03 01:05:00,48.7,27.8,24.32,South,187,10.0,14.0,44,0.00,,---,0.00,VWS V14.01,2013-11-03 06:05:00,
2013-11-03 01:06:00,47.6,28.9,24.30,South,190,14.0,21.0,48,0.00,,---,0.00,VWS V14.01,2013-11-03 06:06:00,
2013-11-03 01:07:00,47.6,29.4,24.30,SSW,192,13.0,21.0,49,0.00,,---,0.00,VWS V14.01,2013-11-03 06:07:00,
2013-11-03 01:08:00,47.6,29.4,24.30,South,190,13.0,21.0,49,0.00,,---,0.00,VWS V14.01,2013-11-03 06:08:00,
2013-11-03 01:09:00,47.5,29.3,24.30,South,180,11.0,21.0,49,0.00,,---,0.00,VWS V14.01,2013-11-03 06:09:00,
2013-11-03 01:10:00,48.8,27.9,24.32,South,182,10.0,11.0,44,0.00,,---,0.00,VWS V14.01,2013-11-03 06:10:00,
2013-11-03 01:11:00,47.4,29.2,24.30,South,188,14.0,21.0,49,0.00,,---,0.00,VWS V14.01,2013-11-03 06:11:00,
2013-11-03 01:12:00,47.3,29.1,24.30,South,187,15.0,21.0,49,0.00,,---,0.00,VWS V14.01,2013-11-03 06:12:00,
2013-11-03 01:13:00,47.2,29.5,24.30,SSW,192,11.0,21.0,50,0.00,,---,0.00,VWS V14.01,2013-11-03 06:13:00,
2013-11-03 01:14:00,47.2,29.5,24.30,SSW,197,11.0,21.0,50,0.00,,---,0.00,VWS V14.01,2013-11-03 06:14:00,
2013-11-03 01:15:00,48.8,27.9,24.32,SSW,204,14.0,16.0,44,0.00,,---,0.00,VWS V14.01,2013-11-03 06:15:00,
2013-11-03 01:20:00,48.9,28.0,24.31,SSW,197,14.0,18.0,44,0.00,,---,0.00,VWS V14.01,2013-11-03 06:20:00,
2013-11-03 01:25:00,48.9,28.0,24.31,SSW,192,12.0,16.0,44,0.00,,---,0.00,VWS V14.01,2013-11-03 06:25:00,
2013-11-03 01:30:00,48.7,27.8,24.30,South,171,14.0,15.0,44,0.00,,---,0.00,VWS V14.01,2013-11-03 06:30:00,
2013-11-03 01:35:00,48.6,28.2,24.30,South,180,14.0,15.0,45,0.00,,---,0.00,VWS V14.01,2013-11-03 06:35:00,
2013-11-03 01:40:00,48.5,28.1,24.30,South,182,16.0,19.0,45,0.00,,---,0.00,VWS V14.01,2013-11-03 06:40:00,
2013-11-03 01:45:00,48.5,28.7,24.30,South,188,8.0,23.0,46,0.00,,---,0.00,VWS V14.01,2013-11-03 06:45:00,
2013-11-03 01:50:00,48.5,28.7,24.31,South,169,16.0,20.0,46,0.00,,---,0.00,VWS V14.01,2013-11-03 06:50:00,
2013-11-03 01:55:00,48.2,28.9,24.30,South,187,14.0,16.0,47,0.00,,---,0.00,VWS V14.01,2013-11-03 06:55:00,
2013-11-03 01:00:00,48.1,28.8,24.30,South,184,9.0,21.0,47,0.00,,---,0.00,VWS V14.01,2013-11-03 07:00:00,
2013-11-03 01:07:00,47.7,29.0,24.30,South,185,11.0,21.0,48,0.00,,---,0.00,VWS V14.01,2013-11-03 07:07:00,
2013-11-03 01:12:00,47.4,29.2,24.30,South,190,15.0,21.0,49,0.00,,---,0.00,VWS V14.01,2013-11-03 07:12:00,
2013-11-03 01:17:00,47.1,29.4,24.29,South,189,14.0,21.0,50,0.00,,---,0.00,VWS V14.01,2013-11-03 07:17:00,
2013-11-03 01:22:00,46.9,29.7,24.29,South,190,12.0,21.0,51,0.00,,---,0.00,VWS V14.01,2013-11-03 07:22:00,
2013-11-03 01:27:00,46.6,29.5,24.29,South,183,11.0,21.0,51,0.00,,---,0.00,VWS V14.01,2013-11-03 07:27:00,
2013-11-03 01:32:00,46.4,29.8,24.30,SSW,194,14.0,21.0,52,0.00,,---,0.00,VWS V14.01,2013-11-03 07:32:00,
2013-11-03 01:37:00,46.3,29.6,24.29,South,190,14.0,21.0,52,0.00,,---,0.00,VWS V14.01,2013-11-03 07:37:00,
2013-11-03 01:42:00,46.1,29.9,24.29,SSW,197,10.0,21.0,53,0.00,,---,0.00,VWS V14.01,2013-11-03 07:42:00,
2013-11-03 01:47:00,46.1,29.9,24.29,South,187,8.0,21.0,53,0.00,,---,0.00,VWS V14.01,2013-11-03 07:47:00,
2013-11-03 01:52:00,46.4,30.2,24.29,SSW,199,10.0,21.0,53,0.00,,---,0.00,VWS V14.01,2013-11-03 07:52:00,
2013-11-03 01:57:00,46.8,30.1,24.29,SSW,202,8.0,21.0,52,0.00,,---,0.00,VWS V14.01,2013-11-03 07:57:00,
2013-11-03 02:02:00,47.1,29.9,24.28,South,187,10.0,12.0,51,0.00,,---,0.00,VWS V14.01,2013-11-03 08:02:00,
2013-11-03 02:07:00,47.1,29.9,24.28,South,187,12.0,12.0,51,0.00,,---,0.00,VWS V14.01,2013-11-03 08:07:00,
2013-11-03 02:12:00,47.2,30.0,24.28,South,190,7.0,11.0,51,0.00,,---,0.00,VWS V14.01,2013-11-03 08:12:00,
2013-11-03 02:17:00,47.1,30.4,24.28,SSW,199,10.0,12.0,52,0.00,,---,0.00,VWS V14.01,2013-11-03 08:17:00,
2013-11-03 02:22:00,47.2,30.5,24.28,SSW,194,9.0,12.0,52,0.00,,---,0.00,VWS V14.01,2013-11-03 08:22:00,
2013-11-03 02:27:00,47.2,30.5,24.27,South,180,7.0,11.0,52,0.00,,---,0.00,VWS V14.01,2013-11-03 08:27:00,
2013-11-03 02:32:00,47.2,30.5,24.27,South,183,9.0,12.0,52,0.00,,---,0.00,VWS V14.01,2013-11-03 08:32:00,
2013-11-03 02:37:00,47.0,30.3,24.27,SSW,210,9.0,11.0,52,0.00,,---,0.00,VWS V14.01,2013-11-03 08:37:00,
2013-11-03 02:42:00,47.0,30.8,24.27,South,191,8.0,9.0,53,0.00,,---,0.00,VWS V14.01,2013-11-03 08:42:00,
2013-11-03 02:47:00,46.8,30.6,24.26,South,191,5.0,11.0,53,0.00,,---,0.00,VWS V14.01,2013-11-03 08:47:00,
2013-11-03 02:52:00,46.7,30.5,24.26,SSW,199,5.0,7.0,53,0.00,,---,0.00,VWS V14.01,2013-11-03 08:52:00,
2013-11-03 02:57:00,46.7,30.5,24.26,SSW,194,10.0,10.0,53,0.00,,---,0.00,VWS V14.01,2013-11-03 08:57:00,
2013-11-03 03:02:00,46.6,30.4,24.25,South,190,8.0,9.0,53,0.00,,---,0.00,VWS V14.01,2013-11-03 09:02:00,
2013-11-03 03:07:00,46.6,30.4,24.25,SSW,197,10.0,10.0,53,0.00,,---,0.00,VWS V14.01,2013-11-03 09:07:00,
2013-11-03 03:12:00,46.7,30.5,24.25,South,187,10.0,14.0,53,0.00,,---,0.00,VWS V14.01,2013-11-03 09:12:00,
2013-11-03 03:17:00,46.7,30.5,24.25,South,190,10.0,12.0,53,0.00,,---,0.00,VWS V14.01,2013-11-03 09:17:00,
2013-11-03 03:22:00,46.8,30.6,24.25,South,187,8.0,10.0,53,0.00,,---,0.00,VWS V14.01,2013-11-03 09:22:00,
2013-11-03 03:28:00,46.8,30.6,24.24,SSW,204,9.0,12.0,53,0.00,,---,0.00,VWS V14.01,2013-11-03 09:28:00,
2013-11-03 03:33:00,46.7,30.5,24.24,SSW,192,10.0,12.0,53,0.00,,---,0.00,VWS V14.01,2013-11-03 09:33:00,
2013-11-03 03:38:00,46.7,30.5,24.24,South,187,10.0,12.0,53,0.00,,---,0.00,VWS V14.01,2013-11-03 09:38:00,
2013-11-03 03:43:00,46.5,30.3,24.23,SSW,198,8.0,10.0,53,0.00,,---,0.00,VWS V14.01,2013-11-03 09:43:00,
2013-11-03 03:48:00,46.5,30.3,24.23,SSW,206,9.0,11.0,53,0.00,,---,0.00,VWS V14.01,2013-11-03 09:48:00,
2013-11-03 03:53:00,46.6,29.9,24.23,SSW,213,9.0,12.0,52,0.00,,---,0.00,VWS V14.01,2013-11-03 09:53:00,
2013-11-03 03:58:00,46.6,29.9,24.24,SSW,203,10.0,13.0,52,0.00,,---,0.00,VWS V14.01,2013-11-03 09:58:00,
2013-11-03 04:03:00,46.6,29.9,24.23,South,185,10.0,14.0,52,0.00,,---,0.00,VWS V14.01,2013-11-03 10:03:00,
2013-11-03 04:08:00,46.4,29.8,24.24,SSW,195,10.0,14.0,52,0.00,,---,0.00,VWS V14.01,2013-11-03 10:08:00,
2013-11-03 04:13:00,46.5,29.8,24.24,SSW,202,13.0,16.0,52,0.00,,---,0.00,VWS V14.01,2013-11-03 10:13:00,
2013-11-03 04:18:00,46.7,29.5,24.24,SSW,210,15.0,16.0,51,0.00,,---,0.00,VWS V14.01,2013-11-03 10:18:00,
2013-11-03 04:23:00,46.8,29.6,24.24,SSW,202,13.0,18.0,51,0.00,,---,0.00,VWS V14.01,2013-11-03 10:23:00,
2013-11-03 04:28:00,46.7,29.5,24.24,South,183,10.0,13.0,51,0.00,,---,0.00,VWS V14.01,2013-11-03 10:28:00,
2013-11-03 04:33:00,46.5,29.8,24.23,SSW,211,14.0,15.0,52,0.00,,---,0.00,VWS V14.01,2013-11-03 10:33:00,
2013-11-03 04:38:00,46.5,29.8,24.23,South,182,11.0,16.0,52,0.00,,---,0.00,VWS V14.01,2013-11-03 10:38:00,
2013-11-03 04:43:00,46.4,29.8,24.23,South,185,14.0,17.0,52,0.00,,---,0.00,VWS V14.01,2013-11-03 10:43:00,
2013-11-03 04:48:00,46.4,29.8,24.22,SSW,193,15.0,16.0,52,0.00,,---,0.00,VWS V14.01,2013-11-03 10:48:00,
2013-11-03 04:53:00,46.3,30.1,24.22,South,173,12.0,14.0,53,0.00,,---,0.00,VWS V14.01,2013-11-03 10:53:00,
2013-11-03 04:58:00,46.2,30.0,24.22,South,183,13.0,13.0,53,0.00,,---,0.00,VWS V14.01,2013-11-03 10:58:00,
2013-11-03 05:03:00,46.1,29.9,24.22,SSW,213,7.0,15.0,53,0.00,,---,0.00,VWS V14.01,2013-11-03 11:03:00,
2013-11-03 05:08:00,46.1,29.9,24.22,SSW,195,10.0,11.0,53,0.00,,---,0.00,VWS V14.01,2013-11-03 11:08:00,
2013-11-03 05:13:00,46.2,30.0,24.22,SSW,194,11.0,15.0,53,0.00,,---,0.00,VWS V14.01,2013-11-03 11:13:00,
2013-11-03 05:18:00,46.3,30.1,24.22,SSW,201,10.0,14.0,53,0.00,,---,0.00,VWS V14.01,2013-11-03 11:18:00,
2013-11-03 05:23:00,46.3,30.1,24.22,SSW,199,10.0,13.0,53,0.00,,---,0.00,VWS V14.01,2013-11-03 11:23:00,
2013-11-03 05:28:00,46.2,30.0,24.21,SSW,210,8.0,14.0,53,0.00,,---,0.00,VWS V14.01,2013-11-03 11:28:00,
2013-11-03 05:33:00,46.2,30.0,24.21,SSW,202,12.0,14.0,53,0.00,,---,0.00,VWS V14.01,2013-11-03 11:33:00,
2013-11-03 05:38:00,46.2,30.0,24.21,SSW,204,11.0,14.0,53,0.00,,---,0.00,VWS V14.01,2013-11-03 11:38:00,
2013-11-03 05:43:00,46.3,30.1,24.21,SSW,195,14.0,16.0,53,0.00,,---,0.00,VWS V14.01,2013-11-03 11:43:00,
2013-11-03 05:48:00,46.3,30.1,24.21,South,191,9.0,13.0,53,0.00,,---,0.00,VWS V14.01,2013-11-03 11:48:00,
2013-11-03 05:53:00,46.3,29.6,24.21,SSW,206,13.0,14.0,52,0.00,,---,0.00,VWS V14.01,2013-11-03 11:53:00,
2013-11-03 05:58:00,46.4,29.8,24.21,SSW,204,10.0,14.0,52,0.00,,---,0.00,VWS V14.01,2013-11-03 11:58:00,
2013-11-03 06:03:00,46.5,29.8,24.21,South,185,11.0,16.0,52,0.00,,---,0.00,VWS V14.01,2013-11-03 12:03:00,
2013-11-03 06:08:00,46.6,29.9,24.20,SSW,199,10.0,16.0,52,0.00,,---,0.00,VWS V14.01,2013-11-03 12:08:00,
2013-11-03 06:13:00,46.6,29.9,24.20,SSW,196,13.0,15.0,52,0.00,,---,0.00,VWS V14.01,2013-11-03 12:13:00,
2013-11-03 06:18:00,46.2,30.9,24.20,South,186,10.0,16.0,55,0.00,,---,0.00,VWS V14.01,2013-11-03 12:18:00,
2013-11-03 06:23:00,45.9,31.1,24.20,South,183,12.0,18.0,56,0.00,,---,0.00,VWS V14.01,2013-11-03 12:23:00,
2013-11-03 06:28:00,45.8,30.6,24.20,SW,227,15.0,19.0,55,0.00,,---,0.00,VWS V14.01,2013-11-03 12:28:00,
2013-11-03 06:33:00,45.7,30.9,24.21,South,190,16.0,18.0,56,0.00,,---,0.00,VWS V14.01,2013-11-03 12:33:00,
2013-11-03 06:38:00,45.5,31.2,24.20,South,187,14.0,16.0,57,0.00,,---,0.00,VWS V14.01,2013-11-03 12:38:00,
2013-11-03 06:43:00,45.5,30.7,24.20,South,189,18.0,18.0,56,0.00,,---,0.00,VWS V14.01,2013-11-03 12:43:00,
2013-11-03 06:48:00,45.6,30.4,24.21,SSW,199,17.0,17.0,55,0.00,,---,0.00,VWS V14.01,2013-11-03 12:48:00,
2013-11-03 06:53:00,45.6,30.8,24.21,South,185,10.0,15.0,56,0.00,,---,0.00,VWS V14.01,2013-11-03 12:53:00,
2013-11-03 06:58:00,45.5,31.2,24.22,SSW,204,16.0,20.0,57,0.00,,---,0.00,VWS V14.01,2013-11-03 12:58:00,
2013-11-03 07:03:00,45.8,31.0,24.22,SW,232,12.0,13.0,56,0.00,,---,0.00,VWS V14.01,2013-11-03 13:03:00,
2013-11-03 07:08:00,46.2,30.9,24.22,SSW,207,12.0,17.0,55,0.00,,---,0.00,VWS V14.01,2013-11-03 13:08:00,
2013-11-03 07:13:00,46.1,32.2,24.23,SW,221,13.0,21.0,58,0.00,,---,0.00,VWS V14.01,2013-11-03 13:13:00,
2013-11-03 07:18:00,45.9,32.8,24.23,SW,226,15.0,17.0,60,0.00,,---,0.00,VWS V14.01,2013-11-03 13:18:00,
2013-11-03 07:23:00,45.7,33.4,24.24,SW,223,11.0,17.0,62,0.00,,---,0.00,VWS V14.01,2013-11-03 13:23:00,
2013-11-03 07:28:00,45.7,34.6,24.24,SW,217,18.0,22.0,65,0.00,,---,0.00,VWS V14.01,2013-11-03 13:28:00,
2013-11-03 07:33:00,46.1,35.4,24.24,SW,220,18.0,21.0,66,0.01,,---,0.01,VWS V14.01,2013-11-03 13:33:00,
2013-11-03 07:38:00,46.0,35.7,24.25,SSW,206,20.0,20.0,67,0.01,,---,0.01,VWS V14.01,2013-11-03 13:38:00,
2013-11-03 07:43:00,45.5,35.6,24.25,South,190,17.0,23.0,68,0.01,,---,0.01,VWS V14.01,2013-11-03 13:43:00,
2013-11-03 07:48:00,45.0,35.1,24.25,SSW,197,14.0,24.0,68,0.01,,---,0.01,VWS V14.01,2013-11-03 13:48:00,
2013-11-03 07:53:00,44.7,34.8,24.25,South,191,12.0,20.0,68,0.01,,---,0.01,VWS V14.01,2013-11-03 13:53:00,
2013-11-03 07:58:00,44.5,34.6,24.24,SSW,199,17.0,20.0,68,0.01,,---,0.01,VWS V14.01,2013-11-03 13:58:00,
2013-11-03 08:03:00,44.3,34.4,24.25,South,180,15.0,19.0,68,0.01,,---,0.01,VWS V14.01,2013-11-03 14:03:00,
2013-11-03 08:08:00,44.0,34.9,24.24,South,182,13.0,18.0,70,0.01,,---,0.01,VWS V14.01,2013-11-03 14:08:00,
2013-11-03 08:13:00,43.8,34.7,24.24,SSW,195,13.0,16.0,70,0.01,,---,0.01,VWS V14.01,2013-11-03 14:13:00,
2013-11-03 08:18:00,43.8,35.0,24.24,SSW,194,14.0,17.0,71,0.01,,---,0.01,VWS V14.01,2013-11-03 14:18:00,
2013-11-03 08:23:00,43.9,35.5,24.24,South,188,11.0,12.0,72,0.01,,---,0.01,VWS V14.01,2013-11-03 14:23:00,
2013-11-03 08:28:00,43.6,35.2,24.23,South,173,19.0,19.0,72,0.01,,---,0.01,VWS V14.01,2013-11-03 14:28:00,
2013-11-03 08:33:00,43.4,35.7,24.23,SSW,197,17.0,21.0,74,0.00,,---,0.01,VWS V14.01,2013-11-03 14:33:00,
2013-11-03 08:38:00,43.4,35.7,24.23,SSW,194,13.0,19.0,74,0.00,,---,0.01,VWS V14.01,2013-11-03 14:38:00,
2013-11-03 08:43:00,43.3,35.9,24.22,SSW,204,13.0,17.0,75,0.00,,---,0.01,VWS V14.01,2013-11-03 14:43:00,
2013-11-03 08:48:00,43.3,36.3,24.22,South,181,15.0,17.0,76,0.00,,---,0.01,VWS V14.01,2013-11-03 14:48:00,
2013-11-03 08:53:00,43.7,37.3,24.21,South,182,15.0,15.0,78,0.00,,---,0.01,VWS V14.01,2013-11-03 14:53:00,
2013-11-03 08:58:00,44.5,37.4,24.20,SSE,167,8.0,15.0,76,0.00,,---,0.01,VWS V14.01,2013-11-03 14:58:00,
2013-11-03 09:03:00,44.3,37.2,24.20,SSW,194,13.0,13.0,76,0.00,,---,0.01,VWS V14.01,2013-11-03 15:03:00,
2013-11-03 09:08:00,44.2,37.8,24.22,SSW,205,14.0,14.0,78,0.00,,---,0.01,VWS V14.01,2013-11-03 15:08:00,
2013-11-03 09:13:00,44.7,38.3,24.22,SSW,195,16.0,21.0,78,0.00,,---,0.01,VWS V14.01,2013-11-03 15:13:00,
2013-11-03 09:18:00,44.7,38.3,24.22,SSW,199,13.0,13.0,78,0.00,,---,0.01,VWS V14.01,2013-11-03 15:18:00,
2013-11-03 09:23:00,44.9,38.1,24.22,South,190,10.0,10.0,77,0.00,,---,0.01,VWS V14.01,2013-11-03 15:23:00,
2013-11-03 09:28:00,44.6,37.8,24.22,South,178,7.0,9.0,77,0.00,,---,0.01,VWS V14.01,2013-11-03 15:28:00,
2013-11-03 09:33:00,44.2,37.8,24.23,SSW,204,13.0,13.0,78,0.00,,---,0.01,VWS V14.01,2013-11-03 15:33:00,
2013-11-03 09:38:00,43.8,37.7,24.24,SSW,195,12.0,15.0,79,0.00,,---,0.01,VWS V14.01,2013-11-03 15:38:00,
2013-11-03 09:43:00,44.0,37.9,24.24,SW,218,13.0,14.0,79,0.00,,---,0.01,VWS V14.01,2013-11-03 15:43:00,
2013-11-03 09:48:00,44.5,38.1,24.23,SSW,197,14.0,17.0,78,0.00,,---,0.01,VWS V14.01,2013-11-03 15:48:00,
2013-11-03 09:53:00,44.6,38.2,24.24,SSW,202,15.0,18.0,78,0.00,,---,0.01,VWS V14.01,2013-11-03 15:53:00,
2013-11-03 09:58:00,44.8,38.4,24.23,South,180,11.0,12.0,78,0.00,,---,0.01,VWS V14.01,2013-11-03 15:58:00,
2013-11-03 10:03:00,45.4,39.0,24.24,South,190,11.0,15.0,78,0.00,,---,0.01,VWS V14.01,2013-11-03 16:03:00,
2013-11-03 10:08:00,46.4,39.6,24.23,South,183,20.0,22.0,77,0.00,,---,0.01,VWS V14.01,2013-11-03 16:08:00,
2013-11-03 10:13:00,47.0,39.2,24.24,South,182,11.0,15.0,74,0.00,,---,0.01,VWS V14.01,2013-11-03 16:13:00,
2013-11-03 10:18:00,47.1,38.9,24.24,South,190,22.0,22.0,73,0.00,,---,0.01,VWS V14.01,2013-11-03 16:18:00,
2013-11-03 10:23:00,46.9,38.7,24.24,South,183,19.0,22.0,73,0.00,,---,0.01,VWS V14.01,2013-11-03 16:23:00,
2013-11-03 10:28:00,46.3,38.5,24.24,South,178,16.0,19.0,74,0.00,,---,0.01,VWS V14.01,2013-11-03 16:28:00,
2013-11-03 10:33:00,45.6,38.2,24.23,South,175,18.0,18.0,75,0.00,,---,0.01,VWS V14.01,2013-11-03 16:33:00,
2013-11-03 10:38:00,45.5,38.0,24.24,South,182,15.0,16.0,75,0.00,,---,0.01,VWS V14.01,2013-11-03 16:38:00,
2013-11-03 10:43:00,45.9,38.8,24.24,South,191,15.0,17.0,76,0.00,,---,0.01,VWS V14.01,2013-11-03 16:43:00,
2013-11-03 10:48:00,46.0,37.8,24.23,South,184,17.0,24.0,73,0.00,,---,0.01,VWS V14.01,2013-11-03 16:48:00,
2013-11-03 10:53:00,46.3,37.8,24.22,SSW,197,15.0,18.0,72,0.00,,---,0.01,VWS V14.01,2013-11-03 16:53:00,
2013-11-03 10:58:00,46.5,37.6,24.22,SSW,193,13.0,17.0,71,0.00,,---,0.01,VWS V14.01,2013-11-03 16:58:00,
2013-11-03 11:03:00,46.9,36.9,24.22,SSW,194,12.0,20.0,68,0.00,,---,0.01,VWS V14.01,2013-11-03 17:03:00,
2013-11-03 11:08:00,47.3,36.2,24.24,SSW,196,22.0,24.0,65,0.00,,---,0.01,VWS V14.01,2013-11-03 17:08:00,
2013-11-03 11:13:00,47.6,36.0,24.22,South,190,18.0,20.0,64,0.00,,---,0.01,VWS V14.01,2013-11-03 17:13:00,
2013-11-03 11:18:00,47.9,35.9,24.22,SSW,194,23.0,23.0,63,0.00,,---,0.01,VWS V14.01,2013-11-03 17:18:00,
2013-11-03 11:23:00,48.1,36.1,24.21,South,187,18.0,23.0,63,0.00,,---,0.01,VWS V14.01,2013-11-03 17:23:00,
2013-11-03 11:28:00,48.5,36.5,24.20,SSW,204,19.0,25.0,63,0.00,,---,0.01,VWS V14.01,2013-11-03 17:28:00,
2013-11-03 11:33:00,48.9,36.1,24.20,SW,217,12.0,16.0,61,0.00,,---,0.01,VWS V14.01,2013-11-03 17:33:00,
2013-11-03 11:38:00,50.3,37.0,24.20,SSW,198,21.0,24.0,60,0.00,,---,0.01,VWS V14.01,2013-11-03 17:38:00,
2013-11-03 11:43:00,50.4,36.6,24.20,SSW,204,23.0,23.0,59,0.00,,---,0.01,VWS V14.01,2013-11-03 17:43:00,
2013-11-03 11:48:00,50.5,36.7,24.19,SSW,194,27.0,27.0,59,0.00,,---,0.01,VWS V14.01,2013-11-03 17:48:00,
2013-11-03 11:53:00,50.6,36.8,24.17,SSE,165,13.0,22.0,59,0.00,,---,0.01,VWS V14.01,2013-11-03 17:53:00,
2013-11-03 11:58:00,49.8,36.9,24.17,SSW,192,15.0,21.0,61,0.00,,---,0.01,VWS V14.01,2013-11-03 17:58:00,
2013-11-03 12:03:00,49.8,37.3,24.17,South,181,21.0,23.0,62,0.00,,---,0.01,VWS V14.01,2013-11-03 18:03:00,
2013-11-03 12:08:00,49.3,37.7,24.17,SSW,194,13.0,21.0,64,0.00,,---,0.01,VWS V14.01,2013-11-03 18:08:00,
2013-11-03 12:13:00,49.3,37.7,24.17,SSW,192,20.0,26.0,64,0.00,,---,0.01,VWS V14.01,2013-11-03 18:13:00,
2013-11-03 12:18:00,49.3,38.0,24.17,SSW,192,21.0,27.0,65,0.00,,---,0.01,VWS V14.01,2013-11-03 18:18:00,
2013-11-03 12:23:00,49.1,38.6,24.18,SW,218,22.0,25.0,67,0.00,,---,0.01,VWS V14.01,2013-11-03 18:23:00,
2013-11-03 12:28:00,48.7,38.6,24.18,SSW,194,17.0,17.0,68,0.00,,---,0.01,VWS V14.01,2013-11-03 18:28:00,
2013-11-03 12:33:00,48.5,38.8,24.18,SSW,195,18.0,23.0,69,0.00,,---,0.01,VWS V14.01,2013-11-03 18:33:00,
2013-11-03 12:38:00,48.6,39.3,24.17,SSW,209,22.0,25.0,70,0.00,,---,0.01,VWS V14.01,2013-11-03 18:38:00,
2013-11-03 12:43:00,48.8,39.5,24.17,South,172,23.0,28.0,70,0.00,,---,0.01,VWS V14.01,2013-11-03 18:43:00,
2013-11-03 12:48:00,49.2,39.8,24.16,SSW,194,20.0,25.0,70,0.00,,---,0.01,VWS V14.01,2013-11-03 18:48:00,
2013-11-03 12:53:00,49.0,39.7,24.17,SSW,196,20.0,25.0,70,0.00,,---,0.01,VWS V14.01,2013-11-03 18:53:00,
2013-11-03 12:58:00,48.8,39.8,24.16,SSW,196,23.0,29.0,71,0.00,,---,0.01,VWS V14.01,2013-11-03 18:58:00,
2013-11-03 13:03:00,48.6,39.6,24.16,SSE,150,20.0,26.0,71,0.00,,---,0.01,VWS V14.01,2013-11-03 19:03:00,
2013-11-03 13:08:00,48.2,39.6,24.16,South,190,23.0,23.0,72,0.00,,---,0.01,VWS V14.01,2013-11-03 19:08:00,
2013-11-03 13:13:00,47.9,39.7,24.15,SSW,197,15.0,21.0,73,0.00,,---,0.01,VWS V14.01,2013-11-03 19:13:00,
2013-11-03 13:18:00,47.8,39.6,24.15,South,187,17.0,24.0,73,0.00,,---,0.01,VWS V14.01,2013-11-03 19:18:00,
2013-11-03 13:23:00,47.8,39.9,24.14,SSW,196,15.0,21.0,74,0.00,,---,0.01,VWS V14.01,2013-11-03 19:23:00,
2013-11-03 13:29:00,48.0,40.1,24.14,SSW,207,22.0,22.0,74,0.00,,---,0.01,VWS V14.01,2013-11-03 19:29:00,
2013-11-03 13:34:00,47.8,39.9,24.14,SSW,192,16.0,21.0,74,0.00,,---,0.01,VWS V14.01,2013-11-03 19:34:00,
2013-11-03 13:39:00,47.4,39.9,24.14,South,172,12.0,17.0,75,0.00,,---,0.01,VWS V14.01,2013-11-03 19:39:00,
2013-11-03 13:44:00,47.6,40.4,24.14,SSW,202,15.0,21.0,76,0.00,,---,0.01,VWS V14.01,2013-11-03 19:44:00,
2013-11-03 13:49:00,48.1,40.6,24.14,SSW,199,12.0,19.0,75,0.00,,---,0.01,VWS V14.01,2013-11-03 19:49:00,
2013-11-03 13:54:00,48.5,41.0,24.14,SSW,199,21.0,22.0,75,0.00,,---,0.01,VWS V14.01,2013-11-03 19:54:00,
2013-11-03 13:59:00,49.0,41.1,24.15,SSW,201,16.0,23.0,74,0.00,,---,0.01,VWS V14.01,2013-11-03 19:59:00,
2013-11-03 14:04:00,49.4,41.5,24.14,South,174,17.0,20.0,74,0.00,,---,0.01,VWS V14.01,2013-11-03 20:04:00,
2013-11-03 14:09:00,49.2,40.9,24.14,South,183,14.0,19.0,73,0.00,,---,0.01,VWS V14.01,2013-11-03 20:09:00,
2013-11-03 14:14:00,49.1,41.2,24.11,South,185,4.0,8.0,74,0.00,,---,0.01,VWS V14.01,2013-11-03 20:14:00,
2013-11-03 14:19:00,49.0,41.4,24.14,West,272,2.0,4.0,75,0.00,,---,0.01,VWS V14.01,2013-11-03 20:19:00,
2013-11-03 14:24:00,49.1,41.5,24.14,South,181,5.0,8.0,75,0.00,,---,0.01,VWS V14.01,2013-11-03 20:24:00,
2013-11-03 14:29:00,48.7,41.1,24.12,SSE,164,6.0,6.0,75,0.00,,---,0.01,VWS V14.01,2013-11-03 20:29:00,
2013-11-03 14:34:00,48.3,41.1,24.13,SSW,206,4.0,9.0,76,0.00,,---,0.01,VWS V14.01,2013-11-03 20:34:00,
2013-11-03 14:39:00,48.3,41.4,24.13,SSW,209,8.0,13.0,77,0.00,,---,0.01,VWS V14.01,2013-11-03 20:39:00,
2013-11-03 14:44:00,48.5,41.6,24.10,South,179,7.0,11.0,77,0.00,,---,0.01,VWS V14.01,2013-11-03 20:44:00,
2013-11-03 14:49:00,49.0,42.1,24.08,SE,135,8.0,14.0,77,0.00,,---,0.01,VWS V14.01,2013-11-03 20:49:00,
2013-11-03 14:54:00,49.1,42.2,24.10,SSE,164,6.0,10.0,77,0.00,,---,0.01,VWS V14.01,2013-11-03 20:54:00,
2013-11-03 14:59:00,48.8,41.9,24.12,SSW,209,10.0,16.0,77,0.00,,---,0.01,VWS V14.01,2013-11-03 20:59:00,
2013-11-03 15:04:00,48.5,42.0,24.13,South,185,8.0,17.0,78,0.00,,---,0.01,VWS V14.01,2013-11-03 21:04:00,
2013-11-03 15:09:00,48.4,42.2,24.13,SW,218,7.0,10.0,79,0.00,,---,0.01,VWS V14.01,2013-11-03 21:09:00,
2013-11-03 15:14:00,48.4,42.5,24.14,SW,223,3.0,9.0,80,0.00,,---,0.01,VWS V14.01,2013-11-03 21:14:00,
2013-11-03 15:19:00,48.8,42.9,24.14,SE,138,3.0,10.0,80,0.00,,---,0.01,VWS V14.01,2013-11-03 21:19:00,
2013-11-03 15:24:00,49.2,43.0,24.14,SSE,162,6.0,9.0,79,0.00,,---,0.01,VWS V14.01,2013-11-03 21:24:00,
2013-11-03 15:29:00,49.2,43.0,24.13,SSE,147,2.0,8.0,79,0.00,,---,0.01,VWS V14.01,2013-11-03 21:29:00,
2013-11-03 15:34:00,49.1,42.9,24.12,ESE,112,6.0,6.0,79,0.00,,---,0.01,VWS V14.01,2013-11-03 21:34:00,
2013-11-03 15:39:00,48.7,42.5,24.15,SW,214,3.0,8.0,79,0.00,,---,0.01,VWS V14.01,2013-11-03 21:39:00,
2013-11-03 15:44:00,48.4,42.5,24.13,East,91,7.0,8.0,80,0.00,,---,0.01,VWS V14.01,2013-11-03 21:44:00,
2013-11-03 15:49:00,47.9,42.7,24.11,East,87,6.0,8.0,82,0.00,,---,0.01,VWS V14.01,2013-11-03 21:49:00,
2013-11-03 15:54:00,47.5,42.6,24.09,SE,142,2.0,5.0,83,0.00,,---,0.01,VWS V14.01,2013-11-03 21:54:00,
2013-11-03 15:59:00,47.2,42.6,24.11,SSW,208,11.0,12.0,84,0.00,,---,0.01,VWS V14.01,2013-11-03 21:59:00,
2013-11-03 16:04:00,47.3,43.0,24.12,SSW,200,11.0,12.0,85,0.00,,---,0.01,VWS V14.01,2013-11-03 22:04:00,
2013-11-03 16:09:00,47.3,43.0,24.13,SSW,204,11.0,11.0,85,0.00,,---,0.01,VWS V14.01,2013-11-03 22:09:00,
2013-11-03 16:14:00,47.5,43.2,24.13,South,183,11.0,12.0,85,0.00,,---,0.01,VWS V14.01,2013-11-03 22:14:00,
2013-11-03 16:19:00,47.5,43.5,24.12,South,180,10.0,17.0,86,0.00,,---,0.01,VWS V14.01,2013-11-03 22:19:00,
2013-11-03 16:24:00,47.5,43.5,24.10,South,173,13.0,18.0,86,0.00,,---,0.01,VWS V14.01,2013-11-03 22:24:00,
2013-11-03 16:29:00,47.3,43.6,24.09,South,171,12.0,12.0,87,0.00,,---,0.01,VWS V14.01,2013-11-03 22:29:00,
2013-11-03 16:34:00,47.1,43.7,24.12,SSW,210,14.0,15.0,88,0.00,,---,0.01,VWS V14.01,2013-11-03 22:34:00,
2013-11-03 16:39:00,47.0,43.9,24.11,WSW,244,6.0,7.0,89,0.00,,---,0.01,VWS V14.01,2013-11-03 22:39:00,
2013-11-03 16:44:00,47.1,44.0,24.13,SSW,201,7.0,9.0,89,0.00,,---,0.01,VWS V14.01,2013-11-03 22:44:00,
2013-11-03 16:49:00,47.0,43.9,24.12,South,187,10.0,10.0,89,0.00,,---,0.01,VWS V14.01,2013-11-03 22:49:00,
2013-11-03 16:54:00,47.0,44.2,24.14,SSW,192,12.0,14.0,90,0.00,,---,0.01,VWS V14.01,2013-11-03 22:54:00,
2013-11-03 16:59:00,47.0,44.2,24.13,South,191,12.0,12.0,90,0.00,,---,0.01,VWS V14.01,2013-11-03 22:59:00,
2013-11-03 17:04:00,47.0,44.2,24.12,South,180,16.0,17.0,90,0.00,,---,0.01,VWS V14.01,2013-11-03 23:04:00,
2013-11-03 17:09:00,47.2,44.7,24.12,South,187,12.0,14.0,91,0.00,,---,0.01,VWS V14.01,2013-11-03 23:09:00,
2013-11-03 17:14:00,47.2,44.7,24.12,South,187,8.0,13.0,91,0.00,,---,0.01,VWS V14.01,2013-11-03 23:14:00,
2013-11-03 17:19:00,47.1,44.6,24.14,South,180,7.0,11.0,91,0.00,,---,0.01,VWS V14.01,2013-11-03 23:19:00,
2013-11-03 17:24:00,47.0,44.8,24.14,South,181,4.0,13.0,92,0.00,,---,0.01,VWS V14.01,2013-11-03 23:24:00,
2013-11-03 17:29:00,47.0,44.8,24.12,South,180,3.0,3.0,92,0.00,,---,0.01,VWS V14.01,2013-11-03 23:29:00,
2013-11-03 17:34:00,46.9,44.7,24.12,SSE,168,0.0,0.0,92,0.00,,---,0.01,VWS V14.01,2013-11-03 23:34:00,
2013-11-03 17:39:00,46.9,44.7,24.13,SSW,209,4.0,4.0,92,0.00,,---,0.01,VWS V14.01,2013-11-03 23:39:00,
2013-11-03 17:44:00,46.8,44.9,24.13,SSW,200,3.0,5.0,93,0.00,,---,0.01,VWS V14.01,2013-11-03 23:44:00,
2013-11-03 17:49:00,46.8,44.9,24.13,SSW,194,3.0,4.0,93,0.00,,---,0.01,VWS V14.01,2013-11-03 23:49:00,
2013-11-03 17:54:00,46.8,44.9,24.14,SW,218,3.0,9.0,93,0.00,,---,0.01,VWS V14.01,2013-11-03 23:54:00,
2013-11-03 17:59:00,46.8,45.2,24.13,SSW,198,2.0,6.0,94,0.00,,---,0.01,VWS V14.01,2013-11-03 23:59:00,
2013-11-03 18:04:00,46.7,45.1,24.13,SW,230,6.0,6.0,94,0.00,,---,0.01,VWS V14.01,2013-11-04 00:04:00,
2013-11-03 18:09:00,46.7,45.1,24.12,South,172,6.0,8.0,94,0.00,,---,0.01,VWS V14.01,2013-11-04 00:09:00,
2013-11-03 18:14:00,46.7,45.1,24.12,South,179,2.0,7.0,94,0.00,,---,0.01,VWS V14.01,2013-11-04 00:14:00,
2013-11-03 18:19:00,46.7,45.1,24.14,SW,234,3.0,7.0,94,0.00,,---,0.01,VWS V14.01,2013-11-04 00:19:00,
2013-11-03 18:24:00,46.7,45.1,24.13,SW,232,2.0,2.0,94,0.00,,---,0.01,VWS V14.01,2013-11-04 00:24:00,
2013-11-03 18:29:00,46.7,45.1,24.13,SSW,206,6.0,7.0,94,0.00,,---,0.01,VWS V14.01,2013-11-04 00:29:00,
2013-11-03 18:34:00,46.7,45.1,24.13,SW,223,5.0,8.0,94,0.00,,---,0.01,VWS V14.01,2013-11-04 00:34:00,
2013-11-03 18:39:00,46.7,45.1,24.13,SSW,198,5.0,6.0,94,0.00,,---,0.01,VWS V14.01,2013-11-04 00:39:00,
2013-11-03 18:44:00,46.6,45.2,24.12,SSW,204,5.0,8.0,95,0.00,,---,0.01,VWS V14.01,2013-11-04 00:44:00,
2013-11-03 18:49:00,46.6,45.2,24.12,SW,221,4.0,7.0,95,0.00,,---,0.01,VWS V14.01,2013-11-04 00:49:00,
2013-11-03 18:54:00,46.6,45.2,24.11,SSW,198,0.0,4.0,95,0.00,,---,0.01,VWS V14.01,2013-11-04 00:54:00,
2013-11-03 18:59:00,46.6,45.2,24.11,WSW,254,2.0,3.0,95,0.00,,---,0.01,VWS V14.01,2013-11-04 00:59:00,
2013-11-03 19:04:00,46.7,45.3,24.11,SSW,209,4.0,4.0,95,0.00,,---,0.01,VWS V14.01,2013-11-04 01:04:00,
2013-11-03 19:09:00,47.0,45.7,24.10,SW,221,9.0,12.0,95,0.00,,---,0.01,VWS V14.01,2013-11-04 01:09:00,
2013-11-03 19:14:00,47.0,45.7,24.11,SSW,208,9.0,11.0,95,0.00,,---,0.01,VWS V14.01,2013-11-04 01:14:00,
2013-11-03 19:19:00,46.8,45.5,24.10,SW,219,10.0,10.0,95,0.00,,---,0.01,VWS V14.01,2013-11-04 01:19:00,
2013-11-03 19:24:00,46.6,45.2,24.11,SW,223,8.0,10.0,95,0.00,,---,0.01,VWS V14.01,2013-11-04 01:24:00,
2013-11-03 19:29:00,46.9,45.5,24.11,SSW,209,11.0,11.0,95,0.00,,---,0.01,VWS V14.01,2013-11-04 01:29:00,
2013-11-03 19:34:00,46.6,45.2,24.13,SSW,209,7.0,10.0,95,0.00,,---,0.01,VWS V14.01,2013-11-04 01:34:00,
2013-11-03 19:39:00,46.6,45.2,24.14,South,187,9.0,13.0,95,0.00,,---,0.01,VWS V14.01,2013-11-04 01:39:00,
2013-11-03 19:44:00,46.6,45.2,24.14,South,186,10.0,15.0,95,0.00,,---,0.01,VWS V14.01,2013-11-04 01:44:00,
2013-11-03 19:49:00,46.6,45.2,24.14,South,182,11.0,15.0,95,0.00,,---,0.01,VWS V14.01,2013-11-04 01:49:00,
2013-11-03 19:54:00,46.6,45.5,24.14,South,180,11.0,14.0,96,0.00,,---,0.01,VWS V14.01,2013-11-04 01:54:00,
2013-11-03 19:59:00,46.5,45.2,24.16,SSW,197,8.0,15.0,95,0.00,,---,0.01,VWS V14.01,2013-11-04 01:59:00,
2013-11-03 20:04:00,46.6,45.5,24.16,SSW,193,9.0,13.0,96,0.00,,---,0.01,VWS V14.01,2013-11-04 02:04:00,
2013-11-03 20:09:00,46.6,45.5,24.16,South,182,9.0,11.0,96,0.00,,---,0.01,VWS V14.01,2013-11-04 02:09:00,
2013-11-03 20:14:00,46.6,45.5,24.17,SSW,192,11.0,13.0,96,0.00,,---,0.01,VWS V14.01,2013-11-04 02:14:00,
2013-11-03 20:19:00,46.6,45.5,24.17,SSW,194,12.0,15.0,96,0.00,,---,0.01,VWS V14.01,2013-11-04 02:19:00,
2013-11-03 20:24:00,46.6,45.5,24.17,SW,214,13.0,14.0,96,0.00,,---,0.01,VWS V14.01,2013-11-04 02:24:00,
2013-11-03 20:29:00,46.7,45.6,24.17,SSW,198,9.0,14.0,96,0.00,,---,0.01,VWS V14.01,2013-11-04 02:29:00,
2013-11-03 20:34:00,46.8,45.7,24.17,SSW,211,8.0,13.0,96,0.00,,---,0.01,VWS V14.01,2013-11-04 02:34:00,
2013-11-03 20:39:00,46.8,45.7,24.17,SSW,195,10.0,11.0,96,0.00,,---,0.01,VWS V14.01,2013-11-04 02:39:00,
2013-11-03 20:44:00,46.8,45.7,24.17,SSW,203,2.0,8.0,96,0.00,,---,0.01,VWS V14.01,2013-11-04 02:44:00,
2013-11-03 20:49:00,46.9,45.8,24.18,SW,214,5.0,9.0,96,0.00,,---,0.01,VWS V14.01,2013-11-04 02:49:00,
2013-11-03 20:54:00,47.0,45.9,24.18,SSW,199,11.0,11.0,96,0.00,,---,0.01,VWS V14.01,2013-11-04 02:54:00,
2013-11-03 20:59:00,47.1,46.0,24.17,South,177,12.0,12.0,96,0.00,,---,0.01,VWS V14.01,2013-11-04 02:59:00,
2013-11-03 21:04:00,47.1,46.0,24.18,SSW,199,14.0,14.0,96,0.00,,---,0.01,VWS V14.01,2013-11-04 03:04:00,
2013-11-03 21:09:00,47.3,46.2,24.17,South,180,11.0,15.0,96,0.00,,---,0.01,VWS V14.01,2013-11-04 03:09:00,
2013-11-03 21:14:00,47.3,46.2,24.17,SSW,202,10.0,13.0,96,0.00,,---,0.01,VWS V14.01,2013-11-04 03:14:00,
2013-11-03 21:19:00,47.4,46.3,24.17,South,183,13.0,14.0,96,0.00,,---,0.01,VWS V14.01,2013-11-04 03:19:00,
2013-11-03 21:24:00,47.3,46.2,24.17,South,188,11.0,14.0,96,0.00,,---,0.01,VWS V14.01,2013-11-04 03:24:00,
2013-11-03 21:29:00,47.3,46.2,24.17,South,179,15.0,16.0,96,0.00,,---,0.01,VWS V14.01,2013-11-04 03:29:00,
2013-11-03 21:34:00,47.3,46.2,24.17,SSW,197,15.0,17.0,96,0.00,,---,0.01,VWS V14.01,2013-11-04 03:34:00,
2013-11-03 21:39:00,47.3,46.2,24.17,SSW,192,11.0,15.0,96,0.00,,---,0.01,VWS V14.01,2013-11-04 03:39:00,
2013-11-03 21:44:00,47.3,46.2,24.17,South,185,16.0,16.0,96,0.00,,---,0.01,VWS V14.01,2013-11-04 03:44:00,
2013-11-03 21:49:00,47.3,46.2,24.17,SSW,209,10.0,10.0,96,0.00,,---,0.01,VWS V14.01,2013-11-04 03:49:00,
2013-11-03 21:54:00,47.3,46.2,24.18,South,171,9.0,10.0,96,0.00,,---,0.01,VWS V14.01,2013-11-04 03:54:00,
2013-11-03 21:59:00,47.3,46.2,24.18,SSW,199,9.0,11.0,96,0.00,,---,0.01,VWS V14.01,2013-11-04 03:59:00,
2013-11-03 22:04:00,47.3,46.2,24.17,SSW,200,11.0,11.0,96,0.00,,---,0.01,VWS V14.01,2013-11-04 04:04:00,
2013-11-03 22:09:00,47.2,46.1,24.17,SSW,202,11.0,13.0,96,0.00,,---,0.01,VWS V14.01,2013-11-04 04:09:00,
2013-11-03 22:14:00,47.2,46.1,24.16,SW,222,9.0,12.0,96,0.00,,---,0.01,VWS V14.01,2013-11-04 04:14:00,
2013-11-03 22:19:00,47.2,46.1,24.16,SSW,201,14.0,15.0,96,0.00,,---,0.01,VWS V14.01,2013-11-04 04:19:00,
2013-11-03 22:24:00,47.2,46.1,24.15,SW,216,12.0,14.0,96,0.00,,---,0.01,VWS V14.01,2013-11-04 04:24:00,
2013-11-03 22:29:00,47.2,46.1,24.15,SSW,200,13.0,15.0,96,0.00,,---,0.01,VWS V14.01,2013-11-04 04:29:00,
2013-11-03 22:34:00,47.2,46.1,24.15,SSW,202,12.0,14.0,96,0.00,,---,0.01,VWS V14.01,2013-11-04 04:34:00,
2013-11-03 22:39:00,47.3,46.2,24.16,SW,222,12.0,13.0,96,0.00,,---,0.01,VWS V14.01,2013-11-04 04:39:00,
2013-11-03 22:44:00,47.3,46.2,24.16,SSW,205,7.0,7.0,96,0.00,,---,0.01,VWS V14.01,2013-11-04 04:44:00,
2013-11-03 22:49:00,47.3,46.2,24.16,SSW,200,5.0,7.0,96,0.00,,---,0.01,VWS V14.01,2013-11-04 04:49:00,
2013-11-03 22:54:00,47.3,46.2,24.16,SW,223,10.0,12.0,96,0.00,,---,0.01,VWS V14.01,2013-11-04 04:54:00,
2013-11-03 22:59:00,47.3,46.2,24.17,SSW,192,15.0,16.0,96,0.00,,---,0.01,VWS V14.01,2013-11-04 04:59:00,
2013-11-03 23:01:00,47.2,46.1,24.17,SSW,199,14.0,18.0,96,0.00,,---,0.01,VWS V14.01,2013-11-04 05:01:00,
2013-11-03 23:06:00,47.0,46.2,24.17,South,182,10.0,13.0,97,0.00,,---,0.01,VWS V14.01,2013-11-04 05:06:00,
2013-11-03 23:11:00,46.9,45.8,24.18,South,188,11.0,13.0,96,0.00,,---,0.01,VWS V14.01,2013-11-04 05:11:00,
2013-11-03 23:16:00,46.8,45.7,24.17,SW,231,9.0,15.0,96,0.00,,---,0.01,VWS V14.01,2013-11-04 05:16:00,
2013-11-03 23:21:00,46.9,45.8,24.18,SSW,204,10.0,17.0,96,0.00,,---,0.01,VWS V14.01,2013-11-04 05:21:00,
2013-11-03 23:26:00,46.9,45.8,24.17,South,181,17.0,17.0,96,0.00,,---,0.01,VWS V14.01,2013-11-04 05:26:00,
2013-11-03 23:31:00,46.9,45.8,24.17,South,183,17.0,17.0,96,0.00,,---,0.01,VWS V14.01,2013-11-04 05:31:00,
2013-11-03 23:36:00,46.9,46.1,24.17,South,190,15.0,18.0,97,0.00,,---,0.01,VWS V14.01,2013-11-04 05:36:00,
2013-11-03 23:41:00,47.0,46.2,24.17,South,188,17.0,17.0,97,0.00,,---,0.01,VWS V14.01,2013-11-04 05:41:00,
2013-11-03 23:46:00,46.9,46.1,24.17,SSW,204,20.0,23.0,97,0.00,,---,0.01,VWS V14.01,2013-11-04 05:46:00,
2013-11-03 23:51:00,46.9,46.1,24.17,SSW,207,16.0,20.0,97,0.00,,---,0.01,VWS V14.01,2013-11-04 05:51:00,
2013-11-03 23:56:00,47.0,46.2,24.17,SSW,197,14.0,26.0,97,0.00,,---,0.01,VWS V14.01,2013-11-04 05:56:00,